Location: Dal�� Lhota
(48.7500°N, 14.0167°E)
Time: 23:23:28
(UTC+00:00)

TSX-5 - Pass Details

Date: 24 September 2020
Orbit: 400 x 1330 km, 68.9° (Epoch: 25 October)

Event Time Altitude Azimuth Distance (km) Brightness Sun altitude
Rises 19:03:47 0° 212° (SSW) 2,556 7.3 -21.2°
Reaches altitude 10° 19:05:42 10° 212° (SSW) 1,768 6.5 -21.5°
Maximum altitude 19:09:37 85° 303° (WNW) 627 4.0 -22.0°
Drops below altitude 10° 19:14:43 10° 31° (NNE) 2,290 6.9 -22.8°
Sets 19:17:28 0° 32° (NNE) 3,390 7.8 -23.2°
